Back to catalog

FENGYUN 1C DEB

AlivePO
NORAD 40695·DEBRIS·🇨🇳 China

Launched May 10, 1999 from Taiyuan Satellite Launch Center

Loading…

Next Passes (next 24 hours)

TLE

AgingSource: Space-Track

Epoch: Sep 10, 2026, 16:38 UTC

1 40695U 99025EXB 26253.69333022  .00000898  00000-0  14672-3 0  9993
2 40695  99.4616  50.6365 0277377 245.2909 111.9178 14.51903622358119

Track FENGYUN 1C DEB in real time with AllMySat

Download on the App Store